When you browse on this site, cookies collect data to enhance your experience and personalize the content and advertising you see.
Visit our Privacy Policy to learn more. By continuing to use the site, you agree to this use of cookies and data.
  • In Hungary
  • List of Countries
  • For 7 days
  • Water Temperature
  • Satellite Maps
  • Weather Map
  • News
  • Weather Widgets
  • user-avatar
    Login

    Hourly Weather Porod

    Today, 10 December, Monday

    Time Temperature Precipitation Wind Pressure Humidity
    00:00 +20°C° 0 mm 4 mps 735 mmHg 33%
    01:00 +19°C° 0 mm 5 mps 735 mmHg 35%
    02:00 +17°C° 0 mm 5 mps 735 mmHg 36%
    03:00 +18°C° 0 mm 4 mps 734 mmHg 38%
    04:00 +17°C° 0 mm 4 mps 734 mmHg 40%
    05:00 +17°C° 0 mm 4 mps 734 mmHg 40%
    06:00 +15°C° 0 mm 4 mps 735 mmHg 41%
    07:00 +15°C° 0 mm 4 mps 735 mmHg 42%
    08:00 +17°C° 0 mm 5 mps 735 mmHg 35%
    09:00 +20°C° 0 mm 6 mps 736 mmHg 29%
    10:00 +22°C° 0 mm 8 mps 736 mmHg 23%
    11:00 +24°C° 0 mm 7 mps 736 mmHg 20%
    12:00 +26°C° 0 mm 7 mps 735 mmHg 17%
    13:00 +28°C° 0 mm 7 mps 734 mmHg 14%
    14:00 +28°C° 0 mm 7 mps 734 mmHg 14%
    15:00 +28°C° 0 mm 7 mps 734 mmHg 14%
    16:00 +28°C° 0 mm 6 mps 733 mmHg 14%
    17:00 +26°C° 0 mm 6 mps 733 mmHg 15%
    18:00 +23°C° 0 mm 5 mps 734 mmHg 17%
    19:00 +22°C° 0 mm 4 mps 734 mmHg 19%
    20:00 +21°C° 0 mm 4 mps 734 mmHg 19%
    21:00 +20°C° 0 mm 4 mps 734 mmHg 19%
    22:00 +19°C° 0 mm 4 mps 735 mmHg 20%
    23:00 +19°C° 0 mm 4 mps 734 mmHg 20%

    Tomorrow, 11 December, Tuesday

    Time Temperature Precipitation Wind Pressure Humidity
    00:00 +18°C° 0 mm 4 mps 734 mmHg 21%
    01:00 +17°C° 0 mm 4 mps 734 mmHg 22%
    02:00 +17°C° 0 mm 4 mps 734 mmHg 23%
    03:00 +15°C° 0 mm 4 mps 734 mmHg 25%
    04:00 +15°C° 0 mm 4 mps 733 mmHg 26%
    05:00 +14°C° 0 mm 4 mps 734 mmHg 27%
    06:00 +14°C° 0 mm 4 mps 734 mmHg 28%
    07:00 +14°C° 0 mm 4 mps 734 mmHg 29%
    08:00 +16°C° 0 mm 5 mps 735 mmHg 26%
    09:00 +20°C° 0 mm 6 mps 735 mmHg 23%
    10:00 +22°C° 0 mm 7 mps 736 mmHg 20%
    11:00 +24°C° 0 mm 7 mps 735 mmHg 17%
    12:00 +26°C° 0 mm 7 mps 734 mmHg 15%
    13:00 +28°C° 0 mm 7 mps 734 mmHg 13%
    14:00 +28°C° 0 mm 7 mps 733 mmHg 13%
    15:00 +28°C° 0 mm 6 mps 733 mmHg 12%
    16:00 +28°C° 0 mm 6 mps 732 mmHg 12%
    17:00 +26°C° 0 mm 5 mps 733 mmHg 14%
    18:00 +23°C° 0 mm 5 mps 733 mmHg 15%
    19:00 +22°C° 0 mm 4 mps 733 mmHg 16%
    20:00 +21°C° 0 mm 4 mps 734 mmHg 17%
    21:00 +20°C° 0 mm 4 mps 734 mmHg 18%
    22:00 +20°C° 0 mm 4 mps 735 mmHg 19%
    23:00 +19°C° 0 mm 4 mps 734 mmHg 20%

    Day after tomorrow, 12 December, Wednesday

    Time Temperature Precipitation Wind Pressure Humidity
    00:00 +19°C° 0 mm 4 mps 734 mmHg 21%
    01:00 +18°C° 0 mm 4 mps 734 mmHg 23%
    02:00 +18°C° 0 mm 4 mps 734 mmHg 24%
    03:00 +17°C° 0 mm 4 mps 733 mmHg 25%
    04:00 +17°C° 0 mm 4 mps 733 mmHg 26%
    05:00 +17°C° 0 mm 4 mps 734 mmHg 26%
    06:00 +15°C° 0 mm 4 mps 734 mmHg 27%
    07:00 +15°C° 0 mm 5 mps 734 mmHg 27%
    08:00 +17°C° 0 mm 6 mps 735 mmHg 24%
    09:00 +21°C° 0 mm 7 mps 735 mmHg 21%
    10:00 +23°C° 0 mm 8 mps 736 mmHg 18%
    11:00 +26°C° 0 mm 8 mps 735 mmHg 16%
    12:00 +27°C° 0 mm 7 mps 734 mmHg 14%
    13:00 +28°C° 0 mm 7 mps 733 mmHg 12%
    14:00 +28°C° 0 mm 7 mps 733 mmHg 12%
    15:00 +28°C° 0 mm 6 mps 733 mmHg 12%
    16:00 +28°C° 0 mm 6 mps 732 mmHg 12%
    17:00 +27°C° 0 mm 5 mps 733 mmHg 13%
    18:00 +25°C° 0 mm 4 mps 733 mmHg 14%
    19:00 +23°C° 0 mm 4 mps 733 mmHg 16%
    20:00 +22°C° 0 mm 4 mps 734 mmHg 17%
    21:00 +22°C° 0 mm 4 mps 734 mmHg 17%
    22:00 +21°C° 0 mm 4 mps 734 mmHg 18%
    23:00 +20°C° 0 mm 4 mps 734 mmHg 19%

    13 December, Thursday

    Time Temperature Precipitation Wind Pressure Humidity
    00:00 +20°C° 0 mm 4 mps 734 mmHg 20%
    01:00 +19°C° 0 mm 4 mps 734 mmHg 20%
    02:00 +19°C° 0 mm 4 mps 734 mmHg 21%
    03:00 +19°C° 0 mm 4 mps 733 mmHg 22%
    04:00 +18°C° 0 mm 4 mps 733 mmHg 23%
    05:00 +18°C° 0 mm 4 mps 734 mmHg 23%
    06:00 +16°C° 0 mm 5 mps 734 mmHg 24%
    07:00 +16°C° 0 mm 5 mps 734 mmHg 24%
    08:00 +19°C° 0 mm 5 mps 735 mmHg 21%
    09:00 +21°C° 0 mm 6 mps 735 mmHg 18%
    10:00 +24°C° 0 mm 7 mps 735 mmHg 16%
    11:00 +26°C° 0 mm 7 mps 735 mmHg 14%
    12:00 +28°C° 0 mm 7 mps 734 mmHg 12%
    13:00 +29°C° 0 mm 7 mps 734 mmHg 10%
    14:00 +29°C° 0 mm 6 mps 733 mmHg 10%
    15:00 +29°C° 0 mm 6 mps 733 mmHg 10%
    16:00 +29°C° 0 mm 5 mps 733 mmHg 10%
    17:00 +28°C° 0 mm 5 mps 733 mmHg 11%
    18:00 +26°C° 0 mm 4 mps 733 mmHg 13%
    19:00 +23°C° 0 mm 4 mps 734 mmHg 14%
    20:00 +23°C° 0 mm 4 mps 734 mmHg 15%
    21:00 +22°C° 0 mm 4 mps 734 mmHg 16%
    22:00 +22°C° 0 mm 4 mps 734 mmHg 17%
    23:00 +21°C° 0 mm 4 mps 734 mmHg 18%

    14 December, Friday

    Time Temperature Precipitation Wind Pressure Humidity
    00:00 +20°C° 0 mm 4 mps 734 mmHg 18%
    01:00 +20°C° 0 mm 4 mps 734 mmHg 19%
    02:00 +19°C° 0 mm 4 mps 733 mmHg 20%
    03:00 +19°C° 0 mm 4 mps 733 mmHg 21%
    04:00 +19°C° 0 mm 4 mps 733 mmHg 21%
    05:00 +18°C° 0 mm 4 mps 734 mmHg 22%
    06:00 +18°C° 0 mm 4 mps 734 mmHg 22%
    07:00 +18°C° 0 mm 4 mps 734 mmHg 23%
    08:00 +20°C° 0 mm 5 mps 735 mmHg 20%
    09:00 +22°C° 0 mm 6 mps 735 mmHg 18%
    10:00 +24°C° 0 mm 6 mps 735 mmHg 15%
    11:00 +27°C° 0 mm 6 mps 735 mmHg 14%
    12:00 +28°C° 0 mm 6 mps 734 mmHg 12%
    13:00 +30°C° 0 mm 6 mps 734 mmHg 11%
    14:00 +30°C° 0 mm 6 mps 733 mmHg 10%
    15:00 +30°C° 0 mm 5 mps 733 mmHg 10%
    16:00 +30°C° 0 mm 5 mps 733 mmHg 10%
    17:00 +28°C° 0 mm 5 mps 733 mmHg 11%
    18:00 +26°C° 0 mm 4 mps 733 mmHg 13%
    19:00 +25°C° 0 mm 4 mps 734 mmHg 14%
    20:00 +23°C° 0 mm 4 mps 734 mmHg 15%
    21:00 +22°C° 0 mm 4 mps 734 mmHg 15%
    22:00 +21°C° 0 mm 4 mps 734 mmHg 16%
    23:00 +21°C° 0 mm 4 mps 734 mmHg 16%

    15 December, Saturday

    Time Temperature Precipitation Wind Pressure Humidity
    00:00 +20°C° 0 mm 4 mps 734 mmHg 17%
    01:00 +20°C° 0 mm 4 mps 733 mmHg 17%
    02:00 +19°C° 0 mm 4 mps 733 mmHg 17%
    03:00 +19°C° 0 mm 4 mps 733 mmHg 17%
    04:00 +18°C° 0 mm 4 mps 733 mmHg 17%
    05:00 +18°C° 0 mm 4 mps 733 mmHg 18%
    06:00 +17°C° 0 mm 4 mps 734 mmHg 18%
    07:00 +17°C° 0 mm 4 mps 734 mmHg 19%
    08:00 +19°C° 0 mm 5 mps 734 mmHg 17%
    09:00 +21°C° 0 mm 5 mps 734 mmHg 15%
    10:00 +23°C° 0 mm 6 mps 735 mmHg 12%
    11:00 +26°C° 0 mm 6 mps 734 mmHg 11%
    12:00 +27°C° 0 mm 6 mps 734 mmHg 10%
    13:00 +29°C° 0 mm 6 mps 733 mmHg 9%
    14:00 +29°C° 0 mm 5 mps 733 mmHg 8%
    15:00 +29°C° 0 mm 5 mps 733 mmHg 8%
    16:00 +28°C° 0 mm 5 mps 732 mmHg 8%
    17:00 +27°C° 0 mm 4 mps 733 mmHg 9%
    18:00 +25°C° 0 mm 4 mps 733 mmHg 10%
    19:00 +22°C° 0 mm 3 mps 733 mmHg 11%
    20:00 +21°C° 0 mm 4 mps 733 mmHg 12%
    21:00 +21°C° 0 mm 4 mps 734 mmHg 12%
    22:00 +20°C° 0 mm 4 mps 734 mmHg 12%
    23:00 +19°C° 0 mm 4 mps 734 mmHg 13%
    Show more